Change the Weather History Date:

Wednesday, February 27, 2013

  Actual Average Record
Temperature  
Mean Temperature 53 °F -  
Max Temperature 60 °F 59 °F 78 °F (2011)
Min Temperature 46 °F 32 °F 32 °F (2014)
Degree Days  
Heating Degree Days 12    
Growing Degree Days 3 (Base 50)    
Moisture  
Dew Point 44 °F    
Average Humidity 72    
Maximum Humidity 100    
Minimum Humidity 52    
Precipitation  
Precipitation 0.00 in - - ()
Sea Level Pressure  
Sea Level Pressure 29.81 in    
Wind  
Wind Speed 9 mph (SW)    
Max Wind Speed 15 mph    
Max Gust Speed 23 mph    
Visibility 10 miles    
Events      
Averages and records for this station are not official NWS values.
T = Trace of Precipitation, MM = Missing Value Source: NWS Daily Summary

Daily Weather History Graph

Daily Weather History Graph

Search for Another Location

Airport or City:

Trip Planner

Search our weather history database for the weather conditions in past years. The results will help you decide how hot, cold, wet, or windy it might be!

Date:

Astronomy

Feb. 27, 2013 Rise Set
Actual Time 6:50 AM EST 6:14 PM EST
Civil Twilight 6:25 AM EST 6:39 PM EST
Nautical Twilight 5:56 AM EST 7:08 PM EST
Astronomical Twilight 5:27 AM EST 7:37 PM EST
Moon 8:24 PM EST (2/27) 7:32 AM EST (2/27)
Length of Visible Light 12h 14m
Length of Day
11h 24m
Waning Gibbous, 96% of the Moon is Illuminated
Feb 27
Waning Gibbous
Mar 4
Last Quarter
Mar 11
New
Mar 19
First Quarter
Mar 27
Full

Hourly Weather History & Observations

Time (EST) Temp. Windchill Dew Point Humidity Pressure Visibility Wind Dir Wind Speed Gust Speed Precip Events Conditions
12:15 AM 53.6 °F - 53.6 °F 100% 29.73 in 10.0 mi West 12.7 mph - N/A   Clear
12:35 AM 53.6 °F - 53.6 °F 100% 29.74 in 10.0 mi West 8.1 mph - N/A   Clear
12:55 AM 51.8 °F - 51.8 °F 100% 29.75 in 10.0 mi West 6.9 mph - N/A   Clear
1:15 AM 51.8 °F - 51.8 °F 100% 29.75 in 10.0 mi West 9.2 mph - N/A   Clear
1:35 AM 51.8 °F - 50.0 °F 94% 29.76 in 10.0 mi West 9.2 mph - N/A   Clear
1:55 AM 51.8 °F - 48.2 °F 88% 29.77 in 10.0 mi West 9.2 mph - N/A   Clear
2:15 AM 51.8 °F - 46.4 °F 82% 29.76 in 10.0 mi WSW 5.8 mph - N/A   Clear
2:35 AM 51.8 °F - 46.4 °F 82% 29.76 in 10.0 mi WSW 9.2 mph - N/A   Clear
2:55 AM 50.0 °F - 46.4 °F 87% 29.76 in 10.0 mi WSW 5.8 mph - N/A   Clear
3:15 AM 50.0 °F - 46.4 °F 87% 29.76 in 10.0 mi WSW 6.9 mph - N/A   Clear
3:55 AM 50.0 °F - 44.6 °F 82% 29.77 in 10.0 mi WSW 10.4 mph - N/A   Clear
4:15 AM 50.0 °F - 42.8 °F 76% 29.77 in 10.0 mi WSW 11.5 mph 17.3 mph N/A   Clear
4:35 AM 50.0 °F - 42.8 °F 76% 29.78 in 10.0 mi WSW 6.9 mph - N/A   Clear
4:55 AM 48.2 °F - 42.8 °F 82% 29.78 in 10.0 mi SW 8.1 mph - N/A   Clear
5:15 AM 46.4 °F 42.9 °F 42.8 °F 87% 29.79 in 10.0 mi WSW 6.9 mph - N/A   Clear
5:35 AM 46.4 °F 42.4 °F 42.8 °F 87% 29.79 in 10.0 mi SW 8.1 mph - N/A   Clear
5:55 AM 46.4 °F 42.4 °F 41.0 °F 81% 29.80 in 10.0 mi SW 8.1 mph - N/A   Clear
6:15 AM 46.4 °F 43.5 °F 41.0 °F 81% 29.81 in 10.0 mi SW 5.8 mph - N/A   Clear
6:35 AM 46.4 °F 42.9 °F 41.0 °F 81% 29.81 in 10.0 mi WSW 6.9 mph - N/A   Clear
6:55 AM 46.4 °F 41.9 °F 41.0 °F 81% 29.83 in 10.0 mi SW 9.2 mph - N/A   Clear
7:15 AM 46.4 °F 42.4 °F 39.2 °F 76% 29.84 in 10.0 mi SW 8.1 mph - N/A   Clear
7:35 AM 46.4 °F 43.5 °F 39.2 °F 76% 29.85 in 10.0 mi SW 5.8 mph - N/A   Clear
7:55 AM 46.4 °F 42.4 °F 41.0 °F 81% 29.86 in 10.0 mi SW 8.1 mph - N/A   Clear
8:35 AM 48.2 °F - 41.0 °F 76% 29.87 in 10.0 mi SW 9.2 mph - N/A   Clear
8:55 AM 50.0 °F - 41.0 °F 71% 29.87 in 10.0 mi WSW 12.7 mph 17.3 mph N/A   Clear
9:15 AM 50.0 °F - 41.0 °F 71% 29.88 in 10.0 mi WSW 12.7 mph 16.1 mph N/A   Clear
9:35 AM 50.0 °F - 39.2 °F 66% 29.88 in 10.0 mi WSW 12.7 mph 23.0 mph N/A   Clear
10:15 AM 51.8 °F - 41.0 °F 67% 29.87 in 10.0 mi WSW 15.0 mph 19.6 mph N/A   Clear
10:35 AM 51.8 °F - 41.0 °F 67% 29.88 in 10.0 mi West 12.7 mph 17.3 mph N/A   Clear
10:55 AM 53.6 °F - 41.0 °F 62% 29.87 in 10.0 mi West 12.7 mph 16.1 mph N/A   Clear
11:15 AM 53.6 °F - 41.0 °F 62% 29.87 in 10.0 mi SW 11.5 mph - N/A   Clear
11:35 AM 55.4 °F - 42.8 °F 63% 29.86 in 10.0 mi WSW 11.5 mph 16.1 mph N/A   Clear
11:55 AM 55.4 °F - 42.8 °F 63% 29.86 in 10.0 mi WSW 6.9 mph - N/A   Clear
12:15 PM 55.4 °F - 42.8 °F 63% 29.85 in 10.0 mi SW 8.1 mph - N/A   Clear
12:35 PM 57.2 °F - 44.6 °F 63% 29.84 in 10.0 mi SSW 8.1 mph - N/A   Clear
12:55 PM 57.2 °F - 42.8 °F 59% 29.84 in 10.0 mi WSW 12.7 mph 18.4 mph N/A   Clear
1:15 PM 59.0 °F - 42.8 °F 55% 29.84 in 10.0 mi SW 9.2 mph 17.3 mph N/A   Clear
1:35 PM 59.0 °F - 42.8 °F 55% 29.82 in 10.0 mi WSW 10.4 mph 18.4 mph N/A   Clear
1:55 PM 59.0 °F - 44.6 °F 59% 29.82 in 10.0 mi SW 11.5 mph 17.3 mph N/A   Clear
2:15 PM 59.0 °F - 42.8 °F 55% 29.82 in 10.0 mi SSW 6.9 mph - N/A   Clear
2:35 PM 60.8 °F - 44.6 °F 55% 29.82 in 10.0 mi SW 11.5 mph - N/A   Clear
2:55 PM 60.8 °F - 44.6 °F 55% 29.81 in 10.0 mi SW 11.5 mph - N/A   Clear
3:15 PM 60.8 °F - 42.8 °F 52% 29.80 in 10.0 mi SW 6.9 mph - N/A   Clear
3:35 PM 60.8 °F - 42.8 °F 52% 29.79 in 10.0 mi WSW 10.4 mph - N/A   Clear
3:55 PM 60.8 °F - 44.6 °F 55% 29.79 in 10.0 mi SSW 5.8 mph - N/A   Clear
4:15 PM 60.8 °F - 44.6 °F 55% 29.79 in 10.0 mi SSW 9.2 mph - N/A   Clear
4:35 PM 60.8 °F - 44.6 °F 55% 29.80 in 10.0 mi SSW 10.4 mph - N/A   Clear
4:55 PM 60.8 °F - 44.6 °F 55% 29.79 in 10.0 mi SSW 8.1 mph - N/A   Clear
5:15 PM 60.8 °F - 44.6 °F 55% 29.80 in 10.0 mi SSW 9.2 mph - N/A   Clear
5:35 PM 59.0 °F - 44.6 °F 59% 29.80 in 10.0 mi SSW 8.1 mph - N/A   Clear
5:55 PM 59.0 °F - 44.6 °F 59% 29.80 in 10.0 mi South 3.5 mph - N/A   Clear
6:15 PM 57.2 °F - 44.6 °F 63% 29.80 in 10.0 mi SSW 4.6 mph - N/A   Clear
6:35 PM 55.4 °F - 44.6 °F 67% 29.81 in 10.0 mi South 3.5 mph - N/A   Clear
6:55 PM 55.4 °F - 44.6 °F 67% 29.81 in 10.0 mi SSW 4.6 mph - N/A   Clear
7:15 PM 53.6 °F - 44.6 °F 72% 29.81 in 10.0 mi SSW 3.5 mph - N/A   Clear
7:35 PM 53.6 °F - 44.6 °F 72% 29.81 in 10.0 mi SSW 4.6 mph - N/A   Clear
7:55 PM 53.6 °F - 44.6 °F 72% 29.81 in 10.0 mi SSW 4.6 mph - N/A   Clear
8:15 PM 53.6 °F - 44.6 °F 72% 29.81 in 10.0 mi SSW 4.6 mph - N/A   Clear
8:35 PM 53.6 °F - 44.6 °F 72% 29.81 in 10.0 mi SSW 3.5 mph - N/A   Clear
9:15 PM 51.8 °F - 44.6 °F 76% 29.81 in 10.0 mi South 4.6 mph - N/A   Clear
9:35 PM 51.8 °F - 44.6 °F 76% 29.81 in 10.0 mi South 4.6 mph - N/A   Clear
9:55 PM 51.8 °F - 44.6 °F 76% 29.81 in 10.0 mi SSW 6.9 mph - N/A   Clear
10:15 PM 51.8 °F - 44.6 °F 76% 29.82 in 10.0 mi SSW 6.9 mph - N/A   Clear
10:35 PM 51.8 °F - 44.6 °F 76% 29.82 in 10.0 mi SSW 6.9 mph - N/A   Clear
10:55 PM 51.8 °F - 44.6 °F 76% 29.82 in 10.0 mi SSW 6.9 mph - N/A   Clear
11:15 PM 50.0 °F - 44.6 °F 82% 29.82 in 10.0 mi SSW 5.8 mph - N/A   Clear
11:35 PM 50.0 °F - 44.6 °F 82% 29.81 in 10.0 mi SSW 3.5 mph - N/A   Clear
11:55 PM 50.0 °F - 44.6 °F 82% 29.81 in 10.0 mi SSW 5.8 mph - N/A   Clear